{"data":{"norad_id":56545,"intl_designator":"2023-065AU","name":"STARLINK-6086","alt_names":[],"object_type":"PAYLOAD","status":"ACTIVE","operator":null,"country":"US","launch_date":"2023-05-14","launch_site_code":"AFETR","launch_vehicle":null,"mission":null,"orbit_class":"UNKNOWN","rcs_meters":null,"size_class":null,"mass_kg":null,"dimensions":null,"purposes":["comms"],"wikipedia_slug":null,"has_3d_model":false,"image_url":null,"decayed_at":null,"tle_current":{"epoch":"2026-09-20T13:24:59.572512Z","epoch_age_seconds":109680,"freshness":"FRESH","line1":"1 56545U 23065AU  26263.55902283 -.00000096  00000+0  60526-5 0  9993","line2":"2 56545  43.0033 203.1774 0001578 266.1886  93.8785 15.27575820186278","mean_motion":15.2757582,"eccentricity":0.0001578,"inclination_deg":43.0033,"raan_deg":203.1774,"arg_perigee_deg":266.1886,"mean_anomaly_deg":93.8785,"bstar":6.0526e-6,"rev_number":18627,"period_min":94.267006661574,"perigee_km":481.97891535089,"apogee_km":484.14430963299,"semimajor_km":6861.1986124919,"source":"CELESTRAK","updated_at":"2026-09-21T09:00:33.477521Z"}}}